Weather Service Report


879 
ASUS43 KTOP 260059
RWRKS 

WEATHER ROUNDUP FOR KANSAS
NATIONAL WEATHER SERVICE GOODLAND KS
800 PM CDT SAT OCT 25 2014

NOTE:  "FAIR" INDICATES FEW OR NO CLOUDS BELOW 12,000 FEET WITH NO
SIGNIFICANT WEATHER AND/OR OBSTRUCTIONS TO VISIBILITY.

KSZ001>006-013>018-027>032-041>047-260200-
NORTHWEST KANSAS
  
CITY           SKY/WX    TMP DP  RH WIND       PRES   REMARKS
GOODLAND       CLEAR     64  43  46 S8        29.99S                  
HAYS           CLEAR     68  52  56 SE10      29.93F                  
HILL CITY      CLEAR     70  46  42 E7        29.94S                  
RUSSELL        CLEAR     71  55  56 SE12      29.93S                  
$$

KSZ061>065-074>080-084>089-260200-
SOUTHWEST KANSAS
  
CITY           SKY/WX    TMP DP  RH WIND       PRES   REMARKS
DODGE CITY     CLEAR     73  48  41 S12       29.98S                  
ELKHART          N/A     70  40  33 S8          N/A                   
GARDEN CITY    CLEAR     70  46  42 SE12      29.96F                  
GREAT BEND     CLEAR     73  54  49 S13       29.95S                  
LIBERAL        CLEAR     73  45  35 S10       30.00S                  
$$

KSZ066>073-081>083-090>101-260200-
SOUTHEAST KANSAS
  
CITY           SKY/WX    TMP DP  RH WIND       PRES   REMARKS
CHANUTE        CLEAR     68  64  87 SE7       30.00S                  
COFFEYVILLE    CLEAR     71  64  78 SE6       29.99S                  
HUTCHINSON     CLEAR     69  57  65 SE6       29.97S                  
NEWTON         CLEAR     73  55  53 S9        30.01S                  
PARSONS        CLEAR     65  63  93 E3        30.01S                  
WICHITA INTL   CLEAR     73  58  59 SE8       29.97F                  
WICHITA JABRA  CLEAR     71  58  63 S7        29.98S                  
WICHITA MCCONL CLEAR     74  59  60 SE7       29.98F                  
WINFIELD       CLEAR     75  62  64 SE6       29.99S                  
$$

KSZ007>012-019>026-033>040-048>060-102>105-260200-
NORTHEAST KANSAS
  
CITY           SKY/WX    TMP DP  RH WIND       PRES   REMARKS
CONCORDIA      CLEAR     68  59  73 E3        29.97R                  
EMPORIA        CLEAR     70  60  70 SE8       29.98S                  
LAWRENCE       CLEAR     63  57  81 E5        30.00S                  
MANHATTAN      CLEAR     71  60  68 NE8       29.96S                  
OLATHE IND     CLEAR     69  57  65 E6        30.02R                  
OLATHE EXE     CLEAR     71  57  61 E5        30.01S                  
SALINA         CLEAR     70  57  63 SE6       29.95S                  
TOPEKA BILLARD CLEAR     68  59  73 E3        29.99S                  
TOPEKA FORBES  CLEAR     68  57  68 E6        29.99S                  
$$

Return to Home page


Western Regional Climate Center, wrcc@dri.edu